Time,TemperatureF,DewpointF,PressureIn,WindDirection,WindDirectionDegrees,WindSpeedMPH,WindSpeedGustMPH,Humidity,HourlyPrecipIn,Conditions,Clouds,dailyrainin,SoftwareType,DateUTC
2013-06-06 00:02:00,76.0,74.0,29.87,ESE,104,0.0,0.0,95,0.00,,,0.00,,2013-06-06 05:02:00,
2013-06-06 00:12:00,76.0,74.0,29.87,ESE,104,0.0,0.0,95,0.00,,,0.00,,2013-06-06 05:12:00,
2013-06-06 00:22:00,75.0,74.0,29.88,ESE,104,0.0,0.0,96,0.00,,,0.00,,2013-06-06 05:22:00,
2013-06-06 00:32:00,75.0,74.0,29.88,ESE,104,0.0,0.0,97,0.00,,,0.00,,2013-06-06 05:32:00,
2013-06-06 00:42:00,75.0,74.0,29.88,ESE,104,0.0,0.0,97,0.00,,,0.00,,2013-06-06 05:42:00,
2013-06-06 00:52:00,75.0,74.0,29.88,ESE,104,0.0,0.0,98,0.00,,,0.00,,2013-06-06 05:52:00,
2013-06-06 01:02:00,75.0,74.0,29.88,ESE,104,0.0,0.0,98,0.00,,,0.00,,2013-06-06 06:02:00,
2013-06-06 01:12:00,75.0,74.0,29.88,ESE,104,0.0,0.0,98,0.00,,,0.00,,2013-06-06 06:12:00,
2013-06-06 01:22:00,74.0,73.0,29.87,ESE,104,0.0,0.0,98,0.00,,,0.00,,2013-06-06 06:22:00,
2013-06-06 01:32:00,75.0,74.0,29.85,ESE,105,0.0,0.0,97,0.00,,,0.00,,2013-06-06 06:32:00,
2013-06-06 01:42:00,75.0,74.0,29.85,ESE,105,0.0,0.0,97,0.00,,,0.00,,2013-06-06 06:42:00,
2013-06-06 01:52:00,74.0,73.0,29.86,ESE,104,0.0,1.0,97,0.00,,,0.00,,2013-06-06 06:52:00,
2013-06-06 02:02:00,74.0,73.0,29.85,ESE,105,0.0,0.0,97,0.00,,,0.00,,2013-06-06 07:02:00,
2013-06-06 02:12:00,74.0,73.0,29.85,ESE,105,0.0,0.0,97,0.00,,,0.00,,2013-06-06 07:12:00,
2013-06-06 02:22:00,74.0,73.0,29.85,ESE,105,0.0,0.0,97,0.00,,,0.00,,2013-06-06 07:22:00,
2013-06-06 02:32:00,73.0,72.0,29.85,ESE,104,0.0,0.0,98,0.00,,,0.00,,2013-06-06 07:32:00,
2013-06-06 02:42:00,73.0,72.0,29.85,ESE,104,0.0,0.0,98,0.00,,,0.00,,2013-06-06 07:42:00,
2013-06-06 02:52:00,73.0,72.0,29.82,ESE,104,0.0,0.0,98,0.00,,,0.00,,2013-06-06 07:52:00,
2013-06-06 03:02:00,73.0,72.0,29.82,ESE,104,0.0,0.0,98,0.00,,,0.00,,2013-06-06 08:02:00,
2013-06-06 03:12:00,73.0,72.0,29.82,ESE,104,0.0,0.0,98,0.00,,,0.00,,2013-06-06 08:12:00,
2013-06-06 03:22:00,73.0,72.0,29.83,ESE,105,0.0,0.0,98,0.00,,,0.00,,2013-06-06 08:22:00,
2013-06-06 03:32:00,73.0,73.0,29.82,ESE,104,0.0,0.0,99,0.00,,,0.00,,2013-06-06 08:32:00,
2013-06-06 03:42:00,72.0,72.0,29.81,ESE,104,0.0,0.0,99,0.00,,,0.00,,2013-06-06 08:42:00,
2013-06-06 03:52:00,72.0,72.0,29.81,ESE,104,0.0,0.0,99,0.00,,,0.00,,2013-06-06 08:52:00,
2013-06-06 04:02:00,73.0,73.0,29.81,ESE,104,0.0,0.0,99,0.00,,,0.00,,2013-06-06 09:02:00,
2013-06-06 04:12:00,73.0,73.0,29.81,ESE,104,0.0,0.0,99,0.00,,,0.00,,2013-06-06 09:12:00,
2013-06-06 04:22:00,73.0,73.0,29.82,ESE,104,0.0,0.0,99,0.00,,,0.00,,2013-06-06 09:22:00,
2013-06-06 04:33:00,73.0,73.0,29.83,ESE,104,0.0,0.0,99,0.00,,,0.00,,2013-06-06 09:33:00,
2013-06-06 04:43:00,73.0,73.0,29.83,ESE,104,0.0,0.0,99,0.00,,,0.00,,2013-06-06 09:43:00,
2013-06-06 04:53:00,73.0,73.0,29.81,ESE,105,0.0,0.0,99,0.00,,,0.00,,2013-06-06 09:53:00,
2013-06-06 05:03:00,73.0,73.0,29.81,ESE,104,0.0,0.0,99,0.00,,,0.00,,2013-06-06 10:03:00,
2013-06-06 05:12:00,73.0,73.0,29.81,ESE,104,0.0,0.0,99,0.00,,,0.00,,2013-06-06 10:12:00,
2013-06-06 05:23:00,72.0,72.0,29.81,ESE,104,0.0,0.0,99,0.00,,,0.00,,2013-06-06 10:23:00,
2013-06-06 05:33:00,72.0,72.0,29.82,ESE,104,0.0,1.0,99,0.00,,,0.00,,2013-06-06 10:33:00,
2013-06-06 05:42:00,72.0,72.0,29.82,ESE,104,0.0,1.0,99,0.00,,,0.00,,2013-06-06 10:42:00,
2013-06-06 05:53:00,72.0,72.0,29.83,ESE,104,0.0,0.0,99,0.00,,,0.00,,2013-06-06 10:53:00,
2013-06-06 06:02:00,72.0,72.0,29.83,ESE,105,0.0,0.0,100,0.00,,,0.00,,2013-06-06 11:02:00,
2013-06-06 06:12:00,72.0,72.0,29.83,ESE,105,0.0,0.0,100,0.00,,,0.00,,2013-06-06 11:12:00,
2013-06-06 06:22:00,72.0,72.0,29.83,ESE,104,0.0,0.0,100,0.00,,,0.00,,2013-06-06 11:22:00,
2013-06-06 06:32:00,72.0,72.0,29.84,ESE,104,0.0,0.0,100,0.00,,,0.00,,2013-06-06 11:32:00,
2013-06-06 06:42:00,72.0,72.0,29.84,ESE,104,0.0,0.0,100,0.00,,,0.00,,2013-06-06 11:42:00,
2013-06-06 06:52:00,72.0,72.0,29.84,ESE,104,0.0,0.0,100,0.00,,,0.00,,2013-06-06 11:52:00,
2013-06-06 07:02:00,72.0,72.0,29.84,ESE,104,0.0,0.0,100,0.00,,,0.00,,2013-06-06 12:02:00,
2013-06-06 07:12:00,72.0,72.0,29.84,ESE,104,0.0,0.0,100,0.00,,,0.00,,2013-06-06 12:12:00,
2013-06-06 07:22:00,73.0,73.0,29.84,ESE,105,0.0,0.0,100,0.00,,,0.00,,2013-06-06 12:22:00,
2013-06-06 07:33:00,73.0,73.0,29.84,ESE,104,0.0,0.0,100,0.00,,,0.00,,2013-06-06 12:33:00,
2013-06-06 07:42:00,73.0,73.0,29.84,ESE,104,0.0,0.0,100,0.00,,,0.00,,2013-06-06 12:42:00,
2013-06-06 07:52:00,74.0,74.0,29.84,ESE,104,0.0,0.0,100,0.00,,,0.00,,2013-06-06 12:52:00,
2013-06-06 08:03:00,75.0,75.0,29.84,North,357,0.0,0.0,99,0.00,,,0.00,,2013-06-06 13:03:00,
2013-06-06 08:13:00,75.0,75.0,29.84,North,357,0.0,0.0,99,0.00,,,0.00,,2013-06-06 13:13:00,
2013-06-06 08:22:00,77.0,76.0,29.84,WSW,241,0.0,0.0,96,0.00,,,0.00,,2013-06-06 13:22:00,
2013-06-06 08:32:00,77.0,75.0,29.85,WSW,242,0.0,0.0,94,0.00,,,0.00,,2013-06-06 13:32:00,
2013-06-06 08:43:00,77.0,75.0,29.85,WSW,242,0.0,0.0,94,0.00,,,0.00,,2013-06-06 13:43:00,
2013-06-06 08:52:00,79.0,76.0,29.85,WSW,242,0.0,1.0,92,0.00,,,0.00,,2013-06-06 13:52:00,
2013-06-06 09:03:00,79.0,76.0,29.85,WNW,283,0.0,2.0,91,0.00,,,0.00,,2013-06-06 14:03:00,
2013-06-06 09:13:00,79.0,76.0,29.85,WNW,283,0.0,2.0,91,0.00,,,0.00,,2013-06-06 14:13:00,
2013-06-06 09:22:00,80.0,76.0,29.85,East,94,0.0,3.0,88,0.00,,,0.00,,2013-06-06 14:22:00,
2013-06-06 09:33:00,81.0,76.0,29.85,WSW,246,0.0,1.0,85,0.00,,,0.00,,2013-06-06 14:33:00,
2013-06-06 09:43:00,81.0,76.0,29.85,WSW,246,0.0,1.0,85,0.00,,,0.00,,2013-06-06 14:43:00,
2013-06-06 09:53:00,83.0,77.0,29.85,West,270,0.0,1.0,83,0.00,,,0.00,,2013-06-06 14:53:00,
2013-06-06 10:03:00,83.0,76.0,29.84,WNW,294,0.0,2.0,79,0.00,,,0.00,,2013-06-06 15:03:00,
2013-06-06 10:13:00,83.0,76.0,29.84,WNW,294,0.0,2.0,79,0.00,,,0.00,,2013-06-06 15:13:00,
2013-06-06 10:23:00,83.0,76.0,29.84,WNW,294,0.0,2.0,79,0.00,,,0.00,,2013-06-06 15:23:00,
2013-06-06 10:33:00,83.0,76.0,29.84,West,264,0.0,1.0,79,0.00,,,0.00,,2013-06-06 15:33:00,
2013-06-06 10:43:00,83.0,76.0,29.84,West,264,0.0,1.0,79,0.00,,,0.00,,2013-06-06 15:43:00,
2013-06-06 10:53:00,84.0,76.0,29.84,NW,306,0.0,2.0,76,0.00,,,0.00,,2013-06-06 15:53:00,
2013-06-06 11:03:00,85.0,77.0,29.84,SSE,161,0.0,1.0,78,0.00,,,0.00,,2013-06-06 16:03:00,
2013-06-06 11:12:00,85.0,77.0,29.84,SSE,161,0.0,1.0,78,0.00,,,0.00,,2013-06-06 16:12:00,
2013-06-06 11:23:00,85.0,77.0,29.84,SSE,161,0.0,1.0,78,0.00,,,0.00,,2013-06-06 16:23:00,
2013-06-06 11:33:00,85.0,76.0,29.85,SW,229,0.0,6.0,74,0.00,,,0.00,,2013-06-06 16:33:00,
2013-06-06 11:44:00,85.0,76.0,29.85,SW,229,0.0,6.0,74,0.00,,,0.00,,2013-06-06 16:44:00,
2013-06-06 11:53:00,83.0,75.0,29.86,WSW,255,0.0,2.0,78,0.00,,,0.00,,2013-06-06 16:53:00,
2013-06-06 12:03:00,83.0,76.0,29.86,North,354,0.0,2.0,80,0.00,,,0.00,,2013-06-06 17:03:00,
2013-06-06 12:13:00,83.0,76.0,29.86,North,354,0.0,2.0,80,0.00,,,0.00,,2013-06-06 17:13:00,
2013-06-06 12:23:00,84.0,77.0,29.86,NNW,330,0.0,3.0,80,0.00,,,0.00,,2013-06-06 17:23:00,
2013-06-06 12:33:00,83.0,75.0,29.87,West,274,0.0,1.0,78,0.00,,,0.00,,2013-06-06 17:33:00,
2013-06-06 12:43:00,83.0,75.0,29.87,West,274,0.0,1.0,78,0.00,,,0.00,,2013-06-06 17:43:00,
2013-06-06 12:53:00,83.0,76.0,29.86,West,271,0.0,1.0,80,0.00,,,0.00,,2013-06-06 17:53:00,
2013-06-06 13:03:00,84.0,76.0,29.86,NNW,327,0.0,3.0,77,0.00,,,0.00,,2013-06-06 18:03:00,
2013-06-06 13:13:00,84.0,76.0,29.86,NNW,327,0.0,3.0,77,0.00,,,0.00,,2013-06-06 18:13:00,
2013-06-06 13:23:00,84.0,76.0,29.86,NNW,327,0.0,3.0,77,0.00,,,0.00,,2013-06-06 18:23:00,
2013-06-06 13:33:00,86.0,77.0,29.84,NE,34,1.0,6.0,74,0.00,,,0.00,,2013-06-06 18:33:00,
2013-06-06 13:43:00,86.0,77.0,29.84,NE,34,1.0,6.0,74,0.00,,,0.00,,2013-06-06 18:43:00,
2013-06-06 13:52:00,87.0,73.0,29.82,WNW,283,1.0,6.0,64,0.00,,,0.00,,2013-06-06 18:52:00,
2013-06-06 14:03:00,84.0,69.0,29.82,West,281,0.0,3.0,60,0.00,,,0.00,,2013-06-06 19:03:00,
2013-06-06 14:13:00,84.0,69.0,29.82,West,281,0.0,3.0,60,0.00,,,0.00,,2013-06-06 19:13:00,
2013-06-06 14:23:00,81.0,69.0,29.81,West,278,0.0,1.0,66,0.00,,,0.00,,2013-06-06 19:23:00,
2013-06-06 14:33:00,80.0,69.0,29.81,WSW,257,0.0,2.0,69,0.00,,,0.00,,2013-06-06 19:33:00,
2013-06-06 14:43:00,80.0,69.0,29.81,WSW,257,0.0,2.0,69,0.00,,,0.00,,2013-06-06 19:43:00,
2013-06-06 14:52:00,78.0,70.0,29.80,WSW,256,0.0,2.0,77,0.00,,,0.00,,2013-06-06 19:52:00,
2013-06-06 15:03:00,78.0,72.0,29.79,WNW,285,0.0,6.0,82,0.00,,,0.00,,2013-06-06 20:03:00,
2013-06-06 15:13:00,78.0,72.0,29.79,WNW,285,0.0,6.0,82,0.00,,,0.00,,2013-06-06 20:13:00,
2013-06-06 15:23:00,81.0,75.0,29.79,West,270,0.0,5.0,81,0.00,,,0.00,,2013-06-06 20:23:00,
2013-06-06 15:33:00,83.0,76.0,29.78,SSW,211,0.0,2.0,79,0.00,,,0.00,,2013-06-06 20:33:00,
2013-06-06 15:42:00,83.0,76.0,29.78,SSW,211,0.0,2.0,79,0.00,,,0.00,,2013-06-06 20:42:00,
2013-06-06 15:52:00,85.0,75.0,29.77,ESE,103,0.0,3.0,73,0.00,,,0.00,,2013-06-06 20:52:00,
2013-06-06 16:03:00,86.0,76.0,29.77,SW,234,0.0,2.0,72,0.00,,,0.00,,2013-06-06 21:03:00,
2013-06-06 16:13:00,86.0,76.0,29.77,SW,234,0.0,2.0,72,0.00,,,0.00,,2013-06-06 21:13:00,
2013-06-06 16:23:00,85.0,75.0,29.78,WSW,250,1.0,3.0,73,0.00,,,0.00,,2013-06-06 21:23:00,
2013-06-06 16:33:00,84.0,74.0,29.80,West,263,0.0,1.0,73,0.00,,,0.00,,2013-06-06 21:33:00,
2013-06-06 16:43:00,84.0,74.0,29.80,West,263,0.0,1.0,73,0.00,,,0.00,,2013-06-06 21:43:00,
2013-06-06 16:53:00,84.0,76.0,29.80,NNE,30,0.0,1.0,77,0.00,,,0.00,,2013-06-06 21:53:00,
2013-06-06 17:03:00,84.0,76.0,29.80,NNE,30,0.0,1.0,77,0.00,,,0.00,,2013-06-06 22:03:00,
2013-06-06 17:13:00,84.0,76.0,29.80,NNE,30,0.0,1.0,77,0.00,,,0.00,,2013-06-06 22:13:00,
2013-06-06 17:23:00,83.0,77.0,29.80,East,98,0.0,1.0,81,0.00,,,0.00,,2013-06-06 22:23:00,
2013-06-06 17:33:00,82.0,76.0,29.80,SW,224,0.0,0.0,83,0.00,,,0.00,,2013-06-06 22:33:00,
2013-06-06 17:43:00,82.0,76.0,29.80,SW,224,0.0,0.0,83,0.00,,,0.00,,2013-06-06 22:43:00,
2013-06-06 17:53:00,82.0,76.0,29.80,SW,229,0.0,1.0,83,0.00,,,0.00,,2013-06-06 22:53:00,
2013-06-06 18:02:00,83.0,77.0,29.79,SE,141,0.0,1.0,83,0.00,,,0.00,,2013-06-06 23:02:00,
2013-06-06 18:12:00,83.0,77.0,29.79,SE,141,0.0,1.0,83,0.00,,,0.00,,2013-06-06 23:12:00,
2013-06-06 18:22:00,83.0,77.0,29.79,SE,141,0.0,1.0,83,0.00,,,0.00,,2013-06-06 23:22:00,
2013-06-06 18:33:00,82.0,76.0,29.76,West,266,0.0,0.0,82,0.00,,,0.00,,2013-06-06 23:33:00,
2013-06-06 18:43:00,82.0,76.0,29.76,West,266,0.0,0.0,82,0.00,,,0.00,,2013-06-06 23:43:00,
2013-06-06 18:52:00,81.0,74.0,29.75,SSW,212,0.0,1.0,79,0.00,,,0.00,,2013-06-06 23:52:00,
2013-06-06 19:02:00,81.0,72.0,29.75,SW,233,0.0,2.0,75,0.00,,,0.00,,2013-06-07 00:02:00,
2013-06-06 19:12:00,81.0,72.0,29.75,SW,233,0.0,2.0,75,0.00,,,0.00,,2013-06-07 00:12:00,
2013-06-06 19:22:00,80.0,72.0,29.76,ESE,108,0.0,1.0,76,0.00,,,0.00,,2013-06-07 00:22:00,
2013-06-06 19:32:00,79.0,72.0,29.77,East,101,0.0,1.0,80,0.00,,,0.00,,2013-06-07 00:32:00,
2013-06-06 19:42:00,79.0,72.0,29.77,East,101,0.0,1.0,80,0.00,,,0.00,,2013-06-07 00:42:00,
2013-06-06 19:52:00,78.0,72.0,29.76,ESE,111,0.0,1.0,83,0.00,,,0.00,,2013-06-07 00:52:00,
2013-06-06 20:02:00,77.0,72.0,29.78,SSE,168,0.0,0.0,85,0.00,,,0.00,,2013-06-07 01:02:00,
2013-06-06 20:12:00,77.0,72.0,29.78,SSE,168,0.0,0.0,85,0.00,,,0.00,,2013-06-07 01:12:00,
2013-06-06 20:22:00,77.0,72.0,29.80,SW,221,0.0,0.0,86,0.00,,,0.00,,2013-06-07 01:22:00,
2013-06-06 20:32:00,76.0,72.0,29.80,SW,219,0.0,1.0,88,0.00,,,0.00,,2013-06-07 01:32:00,
2013-06-06 20:42:00,76.0,72.0,29.80,SW,219,0.0,1.0,88,0.00,,,0.00,,2013-06-07 01:42:00,
2013-06-06 20:52:00,76.0,72.0,29.80,SW,219,0.0,1.0,88,0.00,,,0.00,,2013-06-07 01:52:00,
2013-06-06 21:02:00,76.0,73.0,29.80,South,183,0.0,1.0,89,0.00,,,0.00,,2013-06-07 02:02:00,
2013-06-06 21:12:00,76.0,73.0,29.80,South,183,0.0,1.0,89,0.00,,,0.00,,2013-06-07 02:12:00,
2013-06-06 21:22:00,75.0,71.0,29.80,East,95,0.0,1.0,87,0.00,,,0.00,,2013-06-07 02:22:00,
2013-06-06 21:32:00,75.0,71.0,29.83,SW,225,0.0,1.0,88,0.00,,,0.00,,2013-06-07 02:32:00,
2013-06-06 21:42:00,75.0,71.0,29.83,SW,225,0.0,1.0,88,0.00,,,0.00,,2013-06-07 02:42:00,
2013-06-06 21:52:00,74.0,71.0,29.83,SW,225,0.0,0.0,89,0.00,,,0.00,,2013-06-07 02:52:00,
2013-06-06 22:02:00,73.0,70.0,29.83,SW,224,0.0,0.0,91,0.00,,,0.00,,2013-06-07 03:02:00,
2013-06-06 22:12:00,73.0,70.0,29.83,SW,224,0.0,0.0,91,0.00,,,0.00,,2013-06-07 03:12:00,
2013-06-06 22:22:00,73.0,71.0,29.84,SW,225,0.0,0.0,92,0.00,,,0.00,,2013-06-07 03:22:00,
2013-06-06 22:33:00,73.0,71.0,29.84,SW,225,0.0,0.0,93,0.00,,,0.00,,2013-06-07 03:33:00,
2013-06-06 22:43:00,73.0,71.0,29.84,SW,225,0.0,0.0,93,0.00,,,0.00,,2013-06-07 03:43:00,
2013-06-06 22:53:00,73.0,71.0,29.86,NW,323,0.0,1.0,94,0.00,,,0.00,,2013-06-07 03:53:00,
2013-06-06 23:01:00,73.0,71.0,29.87,NW,323,0.0,0.0,94,0.00,,,0.00,,2013-06-07 04:01:00,
2013-06-06 23:03:00,73.0,71.0,29.86,NW,323,0.0,0.0,94,0.00,,,0.00,,2013-06-07 04:03:00,
2013-06-06 23:12:00,73.0,71.0,29.86,NW,323,0.0,0.0,94,0.00,,,0.00,,2013-06-07 04:12:00,
2013-06-06 23:23:00,73.0,71.0,29.87,NW,323,0.0,0.0,94,0.00,,,0.00,,2013-06-07 04:23:00,
2013-06-06 23:33:00,73.0,71.0,29.87,NW,323,0.0,0.0,94,0.00,,,0.00,,2013-06-07 04:33:00,
2013-06-06 23:42:00,73.0,71.0,29.87,NW,323,0.0,0.0,94,0.00,,,0.00,,2013-06-07 04:42:00,
2013-06-06 23:53:00,73.0,71.0,29.87,NW,323,0.0,0.0,94,0.00,,,0.00,,2013-06-07 04:53:00,